N3OUC-2 Weather Reports


Display with metric or nautical units.
time (UTC)temp
F
wind
direction
speed
MPH
gust
MPH
rain 1hr
in
rain 24hr
in
rain mn
in
humidity
%
barometer
mb
20260510081005 50 193 1.0 3.0 0.00 0.08 0.00 97 1011.6
20260510075004 50 193 2.0 3.0 0.00 0.08 0.00 97 1011.7
20260510074004 50 329 1.0 3.0 0.00 0.08 0.00 97 1011.7
20260510073004 50 329 0.0 5.0 0.00 0.08 0.00 96 1011.6
20260510072004 50 244 4.0 12.0 0.00 0.08 0.00 96 1011.8
20260510071004 51 318 9.0 15.0 0.00 0.08 0.00 97 1011.8
20260510070004 51 113 1.0 2.0 0.00 0.08 0.00 97 1010.8
20260510063006 51 113 0.0 0.0 0.00 0.08 0.00 97 1011.1
20260510062005 51 113 0.0 3.0 0.00 0.08 0.00 97 1011.2
20260510061006 51 111 1.0 6.0 0.00 0.08 0.00 96 1011.3
20260510060006 51 60 1.0 6.0 0.00 0.08 0.00 96 1011.4
20260510055006 52 339 3.0 6.0 0.00 0.08 0.00 97 1011.4
20260510054006 51 165 1.0 2.0 0.00 0.08 0.00 97 1010.8
20260510053006 51 165 1.0 5.0 0.00 0.08 0.00 97 1010.7
20260510052005 51 127 1.0 3.0 0.00 0.08 0.00 96 1010.8
20260510051005 50 128 0.0 3.0 0.00 0.08 0.00 96 1010.9
20260510050005 50 128 1.0 3.0 0.00 0.08 0.00 96 1010.8
20260510045005 50 128 1.0 3.0 0.00 0.08 0.00 96 1010.9
20260510044005 50 125 0.0 2.0 0.00 0.08 0.00 96 1011.0
20260510043005 50 125 1.0 3.0 0.00 0.08 0.00 96 1011.1
20260510042005 50 126 1.0 2.0 0.00 0.08 0.00 95 1011.1
20260510035006 50 126 1.0 3.0 0.00 0.08 0.08 96 1010.9
20260510033005 50 157 2.0 5.0 0.00 0.08 0.08 95 1011.0
20260510032005 50 131 2.0 3.0 0.00 0.08 0.08 94 1011.0
20260510031005 51 130 1.0 2.0 0.00 0.08 0.08 94 1010.9
20260510030005 51 130 1.0 3.0 0.00 0.08 0.08 94 1011.0
20260510024005 52 130 0.0 2.0 0.00 0.08 0.08 93 1010.9
20260510023006 53 130 0.0 2.0 0.00 0.08 0.08 93 1010.8
20260510022005 53 130 0.0 2.0 0.00 0.08 0.08 92 1010.8
20260510021005 54 130 1.0 3.0 0.00 0.08 0.08 92 1010.7
20260510020005 54 117 0.0 3.0 0.00 0.08 0.08 92 1010.6
20260510015006 54 128 2.0 8.0 0.00 0.08 0.08 93 1010.6
20260510014005 54 155 2.0 7.0 0.00 0.08 0.08 93 1010.6
20260510013005 54 111 1.0 5.0 0.00 0.08 0.08 93 1010.5
20260510012005 54 136 1.0 3.0 0.00 0.08 0.08 93 1010.6
20260510005005 55 134 2.0 3.0 0.00 0.08 0.08 91 1010.2
20260510004006 55 134 1.0 3.0 0.00 0.08 0.08 89 1010.1
20260510003005 55 134 0.0 3.0 0.00 0.08 0.08 89 1010.0
20260510002004 56 133 2.0 5.0 0.00 0.08 0.08 89 1009.7
20260510000005 57 156 3.0 12.0 0.00 0.08 0.08 86 1009.6
20260509235005 58 167 5.0 10.0 0.00 0.08 0.08 83 1009.6
20260509234005 58 146 3.0 8.0 0.00 0.08 0.08 81 1009.6
20260509233005 59 148 2.0 7.0 0.00 0.08 0.08 80 1009.6
20260509232005 60 149 2.0 7.0 0.00 0.08 0.08 79 1009.7
20260509231005 60 151 2.0 3.0 0.00 0.08 0.08 77 1009.7
20260509230005 61 132 2.0 3.0 0.00 0.08 0.08 77 1009.6
20260509225005 61 164 1.0 2.0 0.00 0.08 0.08 76 1009.6
20260509224005 61 250 1.0 3.0 0.00 0.08 0.08 75 1009.5
20260509223005 61 251 2.0 3.0 0.00 0.08 0.08 75 1009.5
20260509222005 61 292 3.0 7.0 0.00 0.08 0.08 76 1009.7
20260509220005 59 252 3.0 7.0 0.00 0.08 0.08 80 1009.7
20260509215005 58 269 5.0 9.0 0.00 0.08 0.08 82 1009.7
20260509213006 57 238 2.0 3.0 0.00 0.08 0.08 85 1009.6
20260509212005 58 225 2.0 8.0 0.00 0.08 0.08 84 1009.7
20260509211005 58 266 3.0 7.0 0.00 0.08 0.08 83 1009.8
20260509210005 58 260 1.0 12.0 0.00 0.08 0.08 83 1010.1
20260509205005 59 285 7.0 12.0 0.00 0.08 0.08 80 1010.3
20260509203004 58 295 6.0 9.0 0.00 0.08 0.08 88 1010.3
20260509202004 57 295 2.0 3.0 0.00 0.08 0.08 88 1010.3
20260509201005 57 314 2.0 3.0 0.00 0.08 0.08 89 1010.2
20260509200005 56 171 1.0 5.0 0.01 0.08 0.08 89 1010.2
20260509195005 56 167 0.0 3.0 0.01 0.08 0.08 91 1010.3
20260509193004 55 105 0.0 3.0 0.02 0.08 0.08 92 1010.5
20260509192004 55 157 2.0 5.0 0.03 0.08 0.08 93 1010.7
20260509191005 54 240 2.0 3.0 0.03 0.08 0.08 92 1010.9
20260509185005 54 242 1.0 3.0 0.02 0.07 0.07 91 1011.5
20260509183005 54 234 0.0 3.0 0.01 0.06 0.06 91 1011.5
20260509181004 54 228 2.0 6.0 0.01 0.05 0.05 90 1011.7
20260509180004 55 247 3.0 5.0 0.01 0.05 0.05 91 1011.8
20260509175005 55 261 5.0 8.0 0.02 0.05 0.05 92 1011.7
20260509174004 55 283 3.0 5.0 0.04 0.05 0.05 91 1011.6
20260509173005 55 183 1.0 3.0 0.05 0.05 0.05 91 1011.5
20260509172005 55 355 3.0 7.0 0.04 0.04 0.04 90 1011.5
20260509171004 56 306 6.0 10.0 0.04 0.04 0.04 90 1011.3
20260509170004 56 271 2.0 7.0 0.04 0.04 0.04 89 1011.0
20260509165005 56 284 3.0 8.0 0.03 0.03 0.03 87 1011.3
20260509164005 57 287 6.0 10.0 0.01 0.01 0.01 86 1011.5
20260509161004 57 240 3.0 10.0 0.00 0.00 0.00 83 1011.8
20260509160005 57 220 6.0 12.0 0.00 0.00 0.00 82 1011.9
20260509155005 57 228 3.0 9.0 0.00 0.00 0.00 82 1012.0
20260509153005 57 211 4.0 8.0 0.00 0.00 0.00 82 1012.0
20260509152005 57 175 4.0 9.0 0.00 0.00 0.00 82 1012.0
20260509150004 56 187 3.0 12.0 0.00 0.00 0.00 83 1011.9
20260509145005 56 167 7.0 12.0 0.00 0.00 0.00 83 1011.8
20260509144005 56 180 5.0 12.0 0.00 0.00 0.00 83 1011.7
20260509143004 56 173 4.0 10.0 0.00 0.00 0.00 83 1011.5
20260509142005 56 159 6.0 12.0 0.00 0.00 0.00 83 1011.7
20260509141005 55 185 5.0 8.0 0.00 0.00 0.00 84 1011.6
20260509140006 55 217 4.0 15.0 0.00 0.00 0.00 83 1011.6
20260509134005 55 178 7.0 12.0 0.00 0.00 0.00 82 1011.5
20260509133004 55 175 5.0 9.0 0.00 0.00 0.00 82 1011.4
20260509132004 55 182 6.0 12.0 0.00 0.00 0.00 81 1011.3
20260509131005 55 198 5.0 12.0 0.00 0.00 0.00 82 1011.4
20260509130004 55 171 6.0 10.0 0.00 0.00 0.00 82 1011.5
20260509125004 54 165 5.0 9.0 0.00 0.00 0.00 82 1011.4
20260509124004 54 189 3.0 7.0 0.00 0.00 0.00 82 1011.5
20260509122004 53 151 3.0 9.0 0.00 0.00 0.00 82 1011.5
20260509121004 53 164 3.0 10.0 0.00 0.00 0.00 82 1011.5
20260509115004 53 174 5.0 14.0 0.00 0.00 0.00 82 1011.4
20260509114004 53 165 6.0 10.0 0.00 0.00 0.00 82 1011.5
20260509113004 53 160 5.0 12.0 0.00 0.00 0.00 81 1011.4
20260509112004 53 155 5.0 9.0 0.00 0.00 0.00 82 1011.3
20260509111004 53 139 3.0 9.0 0.00 0.00 0.00 82 1011.2
20260509110004 52 175 2.0 5.0 0.00 0.00 0.00 82 1011.3
20260509105004 52 204 2.0 6.0 0.00 0.00 0.00 83 1011.1
20260509104004 51 173 2.0 5.0 0.00 0.00 0.00 83 1011.1
20260509103004 51 132 1.0 3.0 0.00 0.00 0.00 84 1011.0
20260509102004 51 128 2.0 3.0 0.00 0.00 0.00 85 1011.0
20260509101004 50 146 1.0 3.0 0.00 0.00 0.00 85 1011.1
20260509100005 50 146 1.0 3.0 0.00 0.00 0.00 85 1011.1
20260509095004 50 146 2.0 3.0 0.00 0.00 0.00 85 1010.9
20260509094004 50 146 1.0 2.0 0.00 0.00 0.00 84 1011.1
20260509093004 50 146 0.0 2.0 0.00 0.00 0.00 84 1011.3
20260509091004 50 146 0.0 2.0 0.00 0.00 0.00 84 1011.3
20260509090004 51 146 0.0 2.0 0.00 0.00 0.00 84 1011.1
20260509085004 51 146 1.0 3.0 0.00 0.00 0.00 83 1011.3
20260509084004 51 146 0.0 2.0 0.00 0.00 0.00 82 1011.5
20260509083004 51 146 1.0 1.0 0.00 0.00 0.00 81 1011.8
20260509082004 52 146 1.0 2.0 0.00 0.00 0.00 81 1011.8